Tracking 31027 objects as of 19-Jul-2025
HD Live streaming from Space Station
objects crossing your sky now

COSMOS 2251 DEB

Track COSMOS 2251 DEB now!
10-day predictions


NORAD ID: 34989
Int'l Code: 1993-036AFM
Perigee: 515.8 km
Apogee: 536.8 km
Inclination: 74.0 °
Period: 95.0 minutes
Semi major axis: 6897 km
RCS: 0.05 m2 (small)
Launch date: June 16, 1993
Source: Commonwealth of Independent States (former USSR) (CIS)
Launch site: PLESETSK MISSILE AND SPACE COMPLEX (PKMTR)

Note: This is SATELLITE DEBRIS
Your satellite tracking list
COSMOS 628
Track 1 satellite(s)




NASA's NSSDC Master Catalog

Two Line Element Set (TLE):
1 34989U 93036AFM 25199.96587410  .00054853  00000-0  28600-2 0  9993
2 34989  74.0091 185.5856 0015263 316.8298  43.1700 15.15595302859337
Source of the keplerian elements: AFSPC